Sanford, ME

11:12 AM EDT on May 23, 2017 (GMT -0400)
Sanford Regional

Weather History for KSFM - January, 2012

Change the Weather History Date:

Sunday, January 15, 2012

  Actual Average Record
Temperature  
Mean Temperature 2 °F -  
Max Temperature 14 °F 26 °F 46 °F (1999)
Min Temperature -11 °F 9 °F -14 °F (2009)
Degree Days  
Heating Degree Days 64    
Moisture  
Dew Point -10 °F    
Average Humidity 56    
Maximum Humidity 84    
Minimum Humidity 38    
Precipitation  
Precipitation 0.00 in - - ()
Sea Level Pressure  
Sea Level Pressure 30.21 in    
Wind  
Wind Speed 6 mph (WNW)    
Max Wind Speed 14 mph    
Max Gust Speed 21 mph    
Visibility 10 miles    
Events      
Averages and records for this station are not official NWS values.
T = Trace of Precipitation, MM = Missing Value Source: NWS Daily Summary

Daily Weather History Graph

Daily Weather History Graph

Search for Another Location

Airport or City:

Trip Planner

Search our weather history database for the weather conditions in past years. The results will help you decide how hot, cold, wet, or windy it might be!

Date:

Astronomy

Jan. 15, 2012 Rise Set
Actual Time 7:12 AM EST 4:31 PM EST
Civil Twilight 6:41 AM EST 5:03 PM EST
Nautical Twilight 6:05 AM EST 5:38 PM EST
Astronomical Twilight 5:31 AM EST 6:13 PM EST
Moon No Moon Rise 10:14 AM EST (1/15)
Length of Visible Light 10h 22m
Length of Day
9h 19m
Waning Gibbous, 58% of the Moon is Illuminated
Jan 15
Waning Gibbous
Jan 16
Last Quarter
Jan 23
New
Jan 30
First Quarter
Feb 7
Full

Hourly Weather History & Observations

Time (EST) Temp. Windchill Dew Point Humidity Pressure Visibility Wind Dir Wind Speed Gust Speed Precip Events Conditions
12:15 AM 6.8 °F -4.8 °F -5.8 °F 56% 29.97 in 10.0 mi WNW 6.9 mph - N/A   Clear
12:35 AM 6.8 °F -4.8 °F -5.8 °F 56% 29.97 in 10.0 mi NW 6.9 mph - N/A   Clear
12:55 AM 6.8 °F -3.5 °F -9.4 °F 48% 29.98 in 10.0 mi NW 5.8 mph - N/A   Clear
1:55 AM 3.2 °F -7.8 °F -5.8 °F 66% 30.01 in 10.0 mi West 5.8 mph - N/A   Clear
2:15 AM 3.2 °F -6.2 °F -5.8 °F 66% 30.02 in 10.0 mi West 4.6 mph - N/A   Clear
2:35 AM 3.2 °F -6.2 °F -9.4 °F 56% 30.03 in 10.0 mi WNW 4.6 mph - N/A   Clear
2:55 AM -2.2 °F - -14.8 °F 55% 30.05 in 10.0 mi Calm Calm - N/A   Clear
3:15 AM -5.8 °F - -13.0 °F 71% 30.05 in 10.0 mi Calm Calm - N/A   Clear
4:35 AM -5.8 °F -18.4 °F -18.4 °F 55% 30.08 in 10.0 mi West 5.8 mph - N/A   Clear
5:15 AM -7.6 °F - -14.8 °F 71% 30.09 in 10.0 mi Calm Calm - N/A   Clear
5:35 AM -9.4 °F -18.6 °F -16.6 °F 71% 30.10 in 10.0 mi West 3.5 mph - N/A   Clear
6:35 AM -9.4 °F -18.6 °F -16.6 °F 71% 30.13 in 10.0 mi WNW 3.5 mph - N/A   Clear
6:55 AM -9.4 °F - -14.8 °F 77% 30.14 in 10.0 mi Calm Calm - N/A   Clear
7:15 AM -9.4 °F - -16.6 °F 71% 30.15 in 10.0 mi Calm Calm - N/A   Clear
7:35 AM -11.2 °F -20.6 °F -16.6 °F 77% 30.16 in 10.0 mi West 3.5 mph - N/A   Clear
8:55 AM 3.2 °F - -7.6 °F 61% 30.21 in 10.0 mi Calm Calm - N/A   Clear
9:15 AM 5.0 °F -4.1 °F -7.6 °F 56% 30.21 in 10.0 mi WNW 4.6 mph - N/A   Clear
9:35 AM 6.8 °F -3.5 °F -9.4 °F 48% 30.22 in 10.0 mi NW 5.8 mph - N/A   Clear
9:55 AM 6.8 °F -6.9 °F -7.6 °F 52% 30.23 in 10.0 mi NW 9.2 mph - N/A   Clear
11:15 AM 10.4 °F -2.4 °F -5.8 °F 48% 30.22 in 10.0 mi West 9.2 mph - N/A   Clear
11:35 AM 10.4 °F -3.3 °F -7.6 °F 44% 30.22 in 10.0 mi NNW 10.4 mph - N/A   Clear
11:55 AM 12.2 °F -0.2 °F -5.8 °F 45% 30.22 in 10.0 mi WNW 9.2 mph - N/A   Clear
12:15 PM 12.2 °F 0.7 °F -5.8 °F 45% 30.22 in 10.0 mi NNW 8.1 mph - N/A   Clear
1:15 PM 12.2 °F -1.0 °F -5.8 °F 45% 30.22 in 10.0 mi NW 10.4 mph - N/A   Clear
1:35 PM 12.2 °F -2.5 °F -5.8 °F 45% 30.23 in 10.0 mi WNW 12.7 mph 19.6 mph N/A   Clear
1:55 PM 12.2 °F -3.1 °F -5.8 °F 45% 30.24 in 10.0 mi WNW 13.8 mph 19.6 mph N/A   Clear
2:15 PM 14.0 °F 0.5 °F -7.6 °F 38% 30.25 in 10.0 mi WNW 11.5 mph - N/A   Clear
3:35 PM 12.2 °F -2.5 °F -7.6 °F 41% 30.28 in 10.0 mi WNW 12.7 mph 19.6 mph N/A   Clear
3:55 PM 10.4 °F -4.1 °F -7.6 °F 44% 30.29 in 10.0 mi WNW 11.5 mph 18.4 mph N/A   Clear
4:15 PM 10.4 °F -4.1 °F -7.6 °F 44% 30.30 in 10.0 mi WNW 11.5 mph 20.7 mph N/A   Clear
4:35 PM 8.6 °F -5.5 °F -7.6 °F 48% 30.31 in 10.0 mi WNW 10.4 mph 16.1 mph N/A   Clear
5:55 PM 6.8 °F -5.9 °F -7.6 °F 52% 30.34 in 10.0 mi WNW 8.1 mph - N/A   Clear
6:15 PM 6.8 °F -2.0 °F -5.8 °F 56% 30.35 in 10.0 mi WNW 4.6 mph - N/A   Clear
6:35 PM 6.8 °F -5.9 °F -9.4 °F 48% 30.35 in 10.0 mi WNW 8.1 mph - N/A   Clear
6:55 PM 6.8 °F -6.9 °F -7.6 °F 52% 30.36 in 10.0 mi WNW 9.2 mph - N/A   Clear
7:55 PM 6.8 °F -2.0 °F -7.6 °F 52% 30.38 in 10.0 mi West 4.6 mph - N/A   Clear
8:35 PM 5.0 °F -2.1 °F -7.6 °F 56% 30.39 in 10.0 mi WNW 3.5 mph - N/A   Clear
10:15 PM -5.8 °F - -13.0 °F 71% 30.41 in 10.0 mi Calm Calm - N/A   Clear
10:55 PM -9.4 °F -22.7 °F -18.4 °F 65% 30.42 in 10.0 mi WSW 5.8 mph - N/A   Clear
11:15 PM -9.4 °F -20.9 °F -13.0 °F 84% 30.43 in 10.0 mi WSW 4.6 mph - N/A   Clear